Regional Weather Roundup
Issued by NWS

Home | Current Version | Previous Version | Text Only | Print | Product List | Glossary On
Versions: 1 2 3 4 5 6 7 8 9 10 11 12 13 14 15 16 17 18 19 20 21 22 23 24 25 26 27 28 29 30 31 32 33 34 35 36 37 38 39 40 41 42 43 44 45 46 47 48 49 50
000
ASUS45 KPSR 260810
RWRAZ

ARIZONA HOURLY REGIONAL WEATHER ROUNDUP
NATIONAL WEATHER SERVICE PHOENIX AZ
100 AM MST SUN FEB 26 2017

NOTE: FAIR INDICATES FEW OR NO CLOUDS BELOW 12,000 FEET WITH NO
SIGNIFICANT WEATHER AND/OR OBSTRUCTIONS TO VISIBILITY.

AZZ001>003-036-260900-
NORTHWEST ARIZONA

CITY           SKY/WX    TMP DP  RH WIND       PRES   REMARKS
BULLHEAD CITY  PTCLDY    52  30  43 CALM      29.90F
KINGMAN        CLOUDY    45  11  25 SE7       29.92S
$$

AZZ004>008-015-016-018-260900-
NORTH CENTRAL ARIZONA

CITY           SKY/WX    TMP DP  RH WIND       PRES   REMARKS
GRAND CANYON   PTCLDY    27  19  72 SW6       29.93F WCI  20
WILLIAMS       CLOUDY    32  16  51 SW6G13    29.94S WCI  26
PRESCOTT       CLOUDY    39  21  48 CALM      29.95F
FLAGSTAFF      CLOUDY    26  21  81 W6        29.94F WCI  19
PAYSON         CLOUDY    39  19  45 W3        29.99S
PAGE           CLEAR     40   9  28 CALM      29.91R
$$

AZZ009>014-017-260900-
NORTHEAST ARIZONA

CITY           SKY/WX    TMP DP  RH WIND       PRES   REMARKS
WINSLOW        CLOUDY    38  18  44 SW3       29.94S
SAINT JOHNS    CLOUDY    39   4  23 W10       29.92S WCI  32
WINDOW ROCK    CLOUDY    31  21  66 SW15      29.90S WCI  20
SHOW LOW       MOCLDY    32   7  34 S9        29.95F WCI  24
$$

AZZ023-260900-
GREATER PHOENIX AREA

CITY           SKY/WX    TMP DP  RH WIND       PRES   REMARKS
PHOENIX        CLOUDY    55  35  47 E7        29.92F
BUCKEYE        CLOUDY    50  41  71 CALM      29.93S
LUKE AFB       CLOUDY    52  41  64 NW3       29.92F
DEER VALLEY    CLOUDY    52  33  48 NE6       29.92F
SCOTTSDALE     CLOUDY    52  35  52 CALM      29.94F
MESA-GATEWAY   CLOUDY    50  36  57 SE3       29.95S
$$

AZZ027-028-260900-
SOUTHWEST MARICOPA COUNTY AND PINAL COUNTY

CITY           SKY/WX    TMP DP  RH WIND       PRES   REMARKS
CASA GRANDE    NOT AVBL
$$

AZZ503-504-507>509-260900-
SOUTHEAST ARIZONA

CITY           SKY/WX    TMP DP  RH WIND       PRES   REMARKS
TUCSON         MOCLDY    50  14  23 SE5       29.97F
DAVIS-MONTHAN  CLOUDY    49  17  27 SE6       29.96S
NOGALES        MOCLDY    46  15  28 CALM      29.99F
SIERRA VISTA   MOCLDY    51  -3  11 W8G17     29.99F
DOUGLAS        PTCLDY    43  12  28 E6        29.99S
SAFFORD        PTCLDY    39  15  37 NE5       29.94S
$$

AZZ020-021-025-026-031-260900-
SOUTHWEST ARIZONA

CITY           SKY/WX    TMP DP  RH WIND       PRES   REMARKS
YUMA           CLOUDY    57  38  48 CALM      29.91F
$$

CAZ031-033-041-043-047-048-061-260900-
SOUTHERN CALIFORNIA

CITY           SKY/WX    TMP DP  RH WIND       PRES   REMARKS
DOWNTOWN L.A.  CLEAR     52  42  69 CALM      30.01S
L.A. AIRPORT   PTCLDY    52  43  71 W12       30.01F
SAN DIEGO      CLOUDY    55  43  63 NW7       30.06S
BURBANK        PTCLDY    49  39  68 SW3       30.00S
ONTARIO        MOCLDY    47  41  80 W5        30.00F
RIVERSIDE      PTCLDY    48  44  86 N3        30.01F
PALM SPRINGS   CLEAR     57  40  52 NW17      29.92S
EL CENTRO NAS  MOCLDY    59  32  36 W22       29.91F
IMPERIAL       MOCLDY    57  36  45 W14       29.89F
BLYTHE         MOCLDY    56  36  47 NW5       29.89F
NEEDLES        MOCLDY    57  32  38 W6        29.89F
$$

NVZ020-UTZ003-260900-
SOUTHERN NEVADA-UTAH

CITY           SKY/WX    TMP DP  RH WIND       PRES   REMARKS
LAS VEGAS      PTCLDY    44  22  41 W5        29.92R
SALT LAKE CITY PTCLDY    24  15  68 SE6       29.98F WCI  17
$$

NMZ009-TXZ055-260900-
NEW MEXICO-WEST TEXAS

CITY           SKY/WX    TMP DP  RH WIND       PRES   REMARKS
ALBUQUERQUE    CLOUDY    40   6  24 W5        29.88F
EL PASO        CLEAR     49   5  16 SW3       29.93F
$$


........................KEY........................
SKY/WX - SKY CONDITION/WEATHER
TMP    - TEMPERATURE IN FAHRENHEIT
DP     - DEW POINT IN FAHRENHEIT
RH     - RELATIVE HUMIDITY IN PERCENT
WIND   - DIRECTION AND SPEED IN MILES PER HOUR (MPH)
VRB    - VARIABLE WIND DIRECTION
PRES   - MEAN SEA LEVEL PRESSURE IN INCHES OF MERCURY
         F - FALLING PRESSURE   R - RISING PRESSURE
         S - STEADY PRESSURE
VSB    - VISIBILITY IN MILES
HX     - HEAT INDEX IN FAHRENHEIT
WCI    - WIND CHILL INDEX IN FAHRENHEIT
TC     - TEMPERATURE IN CELSIUS WHICH IS ALSO KNOWN AS
         TEMPERATURE IN CENTIGRADE
AFB    - AIR FORCE BASE
         LUKE AFB IS LUKE AIR FORCE BASE
         DAVIS-MONTHAN IS DAVIS-MONTHAN AIR FORCE BASE
NAS    - NAVAL AIR STATION
         EL CENTRO NAS IS EL CENTRO NAVAL AIR STATION
N/A    - NOT AVAILABLE




USA.gov is the U.S. government's official web portal to all federal, state and local government web resources and services.